Powrót do katalogu

STARLINK-37519

AktywnyŁącznośćSSO
NORAD 69298·PAYLOAD·🇺🇸 United States

Wystrzelony May 30, 2026 z Vandenberg Space Force Base

Loading…

Następne Przeloty (najbliższe 24 godziny)

TLE

ŚwieżeSource: CelesTrak SupGP

Epoka: Sep 15, 2026, 04:05 UTC

1 69298C 26119C   26258.17062500 -.00052428  00000+0 -16276-2 0  2581
2 69298  97.2827 282.9383 0001034  94.1184 261.4232 15.33463725    11

Śledź STARLINK-37519 w czasie rzeczywistym z AllMySat

Download on the App Store